Location: Bittelbronn
(48.4454°N, 8.5870°E)
Time: 06:14:49
(UTC+00:00)

Cosmos 724 - Pass Details

Date: 14 August 2024
Orbit: 862 x 932 km, 65.6° (Epoch: 07 September)

Event Time Altitude Azimuth Distance (km) Brightness Sun altitude
Exits shadow 03:22:54 - 196° (SSW) 3,206 6.8 -8.9°
Reaches altitude 10° 03:24:48 10° 192° (SSW) 2,503 6.2 -8.7°
Maximum altitude 03:30:22 50° 119° (ESE) 1,086 5.0 -7.9°
Drops below altitude 10° 03:35:56 10° 45° (NE) 2,511 8.2 -7.1°
Sets 03:38:28 0° 41° (NE) 3,455 9.0 -6.8°
